RH
34 36 37 39 42 42 43 44 44 44 44 45 46 47 46 47 48 49 49 51 53 56 60 61 61 63 63 61 59 57 56 55 56 56 55 55 54 53 51 47 49 58 60 55 53 51 49 48 47 46 47 49 51 55 61 65 66 66 69 71 73 73 71
36 38 41 42 43 44 45 45 46 45 45 46 46 46 47 49 50 50 50 52 54 56 61 65 68 69 68 68 67 65 63 60 57 58 58 57 57 55 52 49 50 56 60 60 58 55 52 49 47 45 45 47 49 52 55 56 57 60 64 68 71 71 68
40 42 45 47 46 47 47 47 48 48 47 47 47 46 48 50 51 52 53 55 56 58 61 66 70 71 71 71 72 71 70 67 61 57 58 59 59 57 54 52 53 55 60 63 60 57 54 51 50 47 45 46 47 48 50 51 52 55 59 63 66 66 64
44 47 50 51 52 52 51 50 51 51 50 49 50 50 51 52 53 55 57 58 60 61 63 65 68 71 74 75 76 75 75 73 68 62 61 62 61 59 57 56 57 57 59 62 60 58 56 54 52 50 46 45 46 47 50 52 52 52 52 51 52 56 60
48 52 54 55 55 55 55 53 53 53 53 52 53 55 57 58 58 59 61 62 63 65 67 67 66 71 78 82 81 82 82 80 76 72 70 68 66 65 64 63 61 59 59 61 61 59 58 56 54 52 49 48 48 49 51 53 55 57 57 57 57 60 63
50 54 57 58 59 59 58 58 58 56 56 56 56 58 59 61 63 64 65 66 66 68 70 71 72 74 81 88 87 87 89 86 82 81 79 76 73 71 70 68 66 62 61 62 62 62 60 58 57 54 52 51 50 49 50 52 53 56 60 65 68 69 66
53 56 59 61 62 63 62 62 62 61 60 58 59 60 61 63 67 68 68 70 70 71 73 77 82 83 84 90 91 91 93 92 89 88 88 85 81 77 75 74 72 69 67 67 66 65 62 61 59 57 55 53 50 49 50 51 52 54 55 57 60 64 64
57 60 64 67 67 67 68 68 66 65 64 63 62 63 63 65 69 70 72 75 75 77 78 81 89 93 91 92 94 93 96 97 96 96 96 94 91 87 84 82 80 78 75 73 71 70 68 65 62 60 58 55 53 52 51 50 52 54 54 53 54 57 61
61 64 69 73 74 72 72 72 71 69 68 68 67 67 68 69 72 74 76 77 78 82 86 88 93 98 98 97 98 98 99 99 99 99 99 99 98 96 93 89 84 82 80 79 76 74 72 69 66 64 60 58 57 55 53 51 51 52 53 53 52 51 53
67 68 71 75 76 77 78 76 75 74 73 74 73 72 73 76 77 78 79 81 82 86 91 94 97 99 99 100 100 100 100 100 100 100 99 99 99 99 99 95 90 85 82 81 79 77 74 72 70 67 63 60 57 56 55 54 53 53 53 52 53 54 53
72 73 75 77 76 79 82 82 79 79 79 82 83 80 79 82 84 83 84 86 89 89 89 93 97 100 100 100 100 100 100 100 100 100 100 99 100 99 98 97 93 89 86 84 80 77 75 74 72 70 68 65 61 59 61 62 59 57 54 54 57 58 56
76 77 78 81 81 82 84 84 83 85 87 89 91 89 88 91 93 92 90 90 92 92 91 90 94 98 100 100 100 100 100 100 100 100 100 100 100 100 99 97 92 87 87 88 84 80 78 77 76 75 74 71 68 66 67 67 65 62 60 59 59 59 58
80 81 81 84 86 87 86 84 86 92 94 94 95 94 95 98 98 94 92 91 93 95 95 92 93 98 101 100 100 100 100 100 100 100 100 100 100 100 100 100 96 91 88 88 88 85 83 81 79 79 79 77 75 74 74 74 72 69 66 64 62 62 60
84 85 85 86 87 88 89 88 89 95 98 98 98 96 97 99 98 96 95 96 97 98 98 95 95 97 98 99 100 100 100 100 100 100 100 100 100 100 100 100 100 99 96 94 92 89 86 85 83 80 79 79 79 80 80 81 79 77 75 73 69 68 65
87 88 87 87 87 89 93 92 93 98 99 99 99 97 97 100 100 99 100 99 100 100 98 98 97 95 95 97 99 100 100 99 100 100 100 100 100 100 100 100 100 100 100 99 98 95 92 89 87 85 83 82 82 82 82 84 86 86 86 85 82 80 80
91 92 90 89 88 92 96 95 97 101 100 99 100 98 98 100 100 100 100 99 100 100 99 100 99 96 95 97 99 100 100 100 100 100 100 100 100 100 100 100 100 99 100 100 100 100 99 97 94 93 91 89 88 87 86 88 93 95 95 95 91 87 85
95 96 96 94 93 97 100 97 97 101 101 99 100 99 100 101 100 100 100 100 100 100 100 101 99 95 95 97 100 100 99 100 100 100 100 100 100 100 100 100 99 100 100 100 98 98 99 99 99 99 99 98 96 95 95 96 99 99 97 94 90 84 78
95 97 98 98 98 99 100 97 97 101 101 100 100 100 100 100 100 100 100 98 97 96 98 99 97 95 96 98 100 100 99 100 100 99 100 100 100 100 100 99 100 100 100 100 99 98 98 99 100 100 100 99 97 97 99 99 96 95 95 92 88 82 75
96 97 96 98 100 100 100 98 98 100 101 100 100 100 100 100 100 100 98 96 94 93 93 93 93 96 99 100 100 100 100 100 100 100 100 100 99 100 100 99 100 99 99 98 95 94 96 98 99 100 100 100 98 96 97 97 94 93 93 91 86 80 76
97 97 97 100 100 100 100 99 98 99 101 100 99 100 100 100 100 99 97 94 92 91 90 89 90 94 98 99 100 100 100 100 100 100 100 99 101 101 97 97 99 99 97 92 84 83 88 92 94 97 97 98 100 99 99 99 98 97 95 92 88 83 79
98 99 100 100 100 99 99 99 98 100 101 101 100 100 100 100 100 99 96 92 90 88 86 86 88 90 93 98 100 100 100 100 100 99 99 100 100 95 89 93 98 99 98 95 88 86 89 92 94 95 94 95 99 100 99 100 100 99 98 95 91 87 82
100 100 100 100 100 100 99 99 100 100 99 100 100 100 100 100 100 98 95 90 87 85 83 83 85 88 91 96 99 99 100 100 97 95 97 96 91 87 86 92 97 98 99 99 97 96 97 97 98 99 97 97 99 99 98 99 100 100 100 98 95 91 86
100 100 100 100 100 100 100 100 101 100 99 100 101 100 100 100 100 99 97 91 86 84 83 83 84 85 87 92 97 98 96 94 92 93 95 93 89 89 92 95 96 97 98 99 99 99 100 100 100 100 99 99 99 98 97 97 98 99 100 100 98 96 93
99 99 98 97 97 98 99 100 101 101 101 101 100 100 100 100 100 100 97 93 87 83 81 82 83 82 84 88 92 92 90 91 94 95 94 92 90 91 93 94 94 93 93 95 98 98 97 98 98 98 99 98 97 97 96 95 96 98 99 100 100 100 99
94 95 93 91 91 92 93 96 98 99 101 101 101 100 100 100 100 100 97 94 90 84 81 80 79 80 82 86 88 89 91 96 98 97 93 91 90 91 92 92 91 91 91 94 98 98 96 95 94 94 96 94 92 93 97 98 97 98 99 100 100 99 100
89 90 88 87 86 86 87 90 91 93 97 101 101 101 100 100 100 100 98 94 89 84 81 80 79 80 84 88 90 91 94 96 96 95 93 92 91 92 92 89 87 90 93 92 92 93 91 89 88 89 92 93 92 94 98 100 100 99 100 100 100 100 100
87 86 85 84 83 84 85 85 86 88 92 97 99 100 101 100 100 100 99 95 89 85 82 81 83 85 88 90 89 90 92 91 89 90 92 93 92 92 92 89 86 86 87 86 85 85 83 81 81 82 87 93 97 99 100 100 100 100 100 100 99 100 100
86 85 84 83 82 83 84 84 85 86 86 89 94 97 99 100 100 99 97 91 86 85 84 83 87 92 93 92 91 92 92 91 88 88 92 96 97 96 96 95 93 91 89 86 83 81 80 80 83 86 89 95 100 101 100 100 100 100 100 100 100 99 100
86 85 85 85 84 83 81 80 81 84 85 88 91 94 96 97 96 94 92 88 85 87 90 91 94 95 93 90 88 88 89 89 90 91 93 96 98 97 96 96 96 96 92 87 85 84 82 82 85 86 86 90 97 100 99 99 100 100 99 100 101 99 97
92 90 89 88 86 85 85 83 82 84 89 92 94 95 94 91 87 86 88 89 89 90 89 87 87 86 83 80 79 80 81 83 86 90 93 97 97 94 91 90 90 88 87 86 88 87 83 81 82 81 80 83 90 96 97 98 100 100 99 99 99 95 92
98 97 96 94 90 89 93 95 93 93 97 97 95 94 92 87 83 82 82 85 88 87 82 79 78 77 75 74 74 75 78 79 81 85 90 93 94 91 88 87 87 85 86 88 88 86 84 84 84 84 84 84 85 88 92 96 99 100 99 98 96 92 88
99 99 99 99 96 95 96 97 98 99 100 100 95 89 85 83 80 77 75 78 81 80 77 76 76 75 76 76 76 78 82 84 85 87 88 89 90 89 87 87 87 86 87 87 85 82 83 85 84 84 86 84 82 85 89 94 98 100 98 96 93 90 89
98 97 96 96 97 98 99 99 98 97 99 102 99 88 80 80 81 80 79 81 83 82 80 79 79 80 82 83 83 86 89 90 89 89 88 86 86 86 86 87 88 87 88 91 91 87 85 85 86 86 88 87 86 88 88 89 91 94 96 95 91 87 88
92 95 95 92 89 91 95 99 99 97 96 99 96 87 83 88 91 91 90 90 88 87 86 85 85 86 86 85 86 88 89 89 89 88 86 85 84 83 84 86 89 92 94 97 97 93 90 90 90 90 90 88 87 88 89 88 90 91 94 96 92 87 86
85 92 96 94 86 83 87 93 94 89 86 88 88 87 89 91 88 85 84 85 84 84 84 83 84 86 87 87 87 87 87 88 88 87 85 84 84 84 86 89 94 98 99 96 93 91 92 93 93 92 91 88 86 87 88 88 90 91 93 96 95 90 87
85 91 97 99 93 85 82 85 85 83 86 94 96 92 87 81 75 73 73 75 79 82 82 82 84 86 87 87 87 86 86 87 86 84 83 83 83 84 87 91 96 97 96 93 90 90 93 95 93 92 92 90 88 88 89 89 90 92 93 95 96 94 90
Wind_Speed
30 27 25 25 24 24 24 25 25 25 24 24 24 24 23 23 23 23 22 21 20 20 20 20 20 20 20 18 17 16 15 15 15 14 14 13 13 13 13 13 13 11 9 11 13 14 14 13 14 14 14 14 14 14 13 14 15 15 16 16 17 16 15
31 28 26 25 25 24 24 25 25 25 24 24 24 24 24 23 24 24 23 22 21 22 21 20 21 20 20 20 19 18 17 16 16 16 15 14 14 14 13 14 15 13 11 11 12 13 14 13 13 14 14 14 14 14 13 15 17 18 17 17 17 18 19
32 30 27 25 25 25 24 24 25 25 25 25 25 24 24 24 24 24 24 23 22 22 21 21 21 22 22 22 21 21 20 19 19 18 18 17 16 15 14 14 15 15 13 11 12 12 13 13 13 14 14 13 14 14 13 15 17 17 18 18 18 20 21
31 29 27 25 25 25 25 25 25 25 25 25 24 25 24 24 23 23 23 23 22 22 22 22 23 23 24 23 22 22 22 21 21 20 20 19 18 17 16 15 15 15 14 12 12 12 12 12 13 14 15 14 14 14 14 14 15 17 19 22 22 22 22
30 28 26 26 25 25 25 25 25 25 25 25 24 24 24 23 22 22 22 22 21 21 22 23 25 25 24 23 23 22 22 22 22 21 20 20 19 18 17 16 15 14 15 14 13 12 12 12 13 14 15 14 14 14 13 13 14 15 16 18 19 19 19
31 29 27 26 25 25 25 25 25 25 24 24 24 24 24 24 24 23 22 22 23 23 23 24 25 25 24 23 23 22 21 22 23 22 22 21 20 18 16 16 15 14 14 14 14 12 12 12 13 14 14 14 14 14 14 13 13 14 14 14 14 15 16
32 31 30 28 26 25 25 25 24 24 24 24 24 24 25 26 26 25 24 25 25 24 24 24 23 24 24 24 24 23 21 21 22 21 21 21 20 19 17 16 15 14 14 13 13 12 12 12 12 13 14 13 12 13 13 13 13 13 13 13 13 13 14
32 32 29 27 26 25 25 24 24 24 24 24 25 24 25 26 26 26 25 24 24 24 25 24 22 22 24 25 25 25 22 21 20 19 18 18 18 18 18 16 14 14 13 13 12 12 11 11 12 12 12 12 11 11 12 12 12 12 12 12 12 12 11
33 32 29 25 24 24 24 24 24 25 24 24 25 25 26 26 26 25 24 23 22 22 23 23 21 21 23 24 25 25 24 23 22 20 19 18 17 17 17 16 16 14 13 12 12 12 11 11 11 11 11 11 10 10 11 11 11 11 12 12 12 12 12
31 33 32 28 26 25 24 25 25 25 25 26 26 25 25 25 24 24 23 22 21 20 20 21 22 22 24 25 26 26 26 25 25 24 22 19 18 18 18 17 17 16 15 13 12 12 11 10 10 11 11 11 11 10 10 9 9 10 11 11 11 11 10
31 32 32 31 30 27 25 26 26 26 26 27 26 26 27 25 22 21 21 20 19 19 20 20 21 22 24 25 27 28 28 28 27 27 25 22 20 21 21 20 19 17 16 14 13 13 12 11 11 11 11 10 10 9 8 8 9 9 9 9 8 8 8
32 33 32 31 31 30 28 28 28 26 26 26 26 27 27 23 19 18 18 18 19 19 19 20 21 21 22 24 26 27 27 28 28 28 28 26 23 22 22 22 22 20 18 16 15 13 13 13 12 11 11 11 10 9 8 7 7 7 8 9 8 7 7
32 33 33 32 31 31 31 30 28 25 25 26 26 27 26 23 20 20 20 20 19 18 18 18 19 19 20 23 24 25 26 28 29 29 28 28 26 25 24 24 24 23 20 18 16 15 15 15 13 11 11 11 10 8 7 6 7 8 8 8 9 9 10
32 33 33 32 32 32 30 29 27 25 25 25 25 26 27 25 24 25 26 24 22 20 20 19 18 17 18 20 22 24 25 27 27 27 27 28 28 28 27 26 26 25 23 21 19 19 19 17 16 15 13 12 11 11 10 8 8 8 8 9 11 11 11
33 33 33 34 34 31 27 26 26 24 24 25 24 25 26 25 23 24 26 27 26 25 24 23 21 20 20 20 22 24 25 26 26 25 25 27 28 28 27 27 28 28 28 27 25 26 25 22 20 20 18 17 17 17 16 14 11 10 9 9 11 11 10
27 28 31 33 33 29 24 24 25 24 24 25 24 24 23 21 21 22 22 23 26 28 27 25 25 24 23 23 23 23 25 26 26 24 24 25 25 26 25 26 27 27 27 28 28 30 31 28 25 23 21 20 21 21 21 18 14 11 9 8 8 9 10
20 21 23 26 29 28 23 22 23 24 24 24 24 24 21 18 18 19 19 19 21 24 25 26 27 25 24 25 24 24 25 26 26 25 24 24 23 23 23 25 26 26 26 27 28 28 29 29 26 24 22 20 19 20 18 15 12 10 9 8 7 7 10
19 18 18 19 24 28 24 20 21 23 24 24 24 24 21 18 17 17 18 19 20 22 22 23 25 25 25 25 24 24 25 26 27 27 25 23 23 22 23 23 23 24 26 26 27 28 27 26 25 25 24 22 20 19 18 17 15 12 10 9 8 7 9
17 16 17 16 20 24 22 19 18 20 23 24 24 22 20 18 16 16 17 19 20 21 22 22 23 24 26 26 24 24 25 26 28 28 26 25 22 21 23 23 20 22 25 25 26 28 27 26 25 24 24 23 22 21 21 23 22 16 12 11 10 9 8
15 15 15 13 16 19 20 19 18 19 21 23 23 22 20 18 17 17 18 19 19 19 20 22 22 24 27 28 27 26 25 26 28 28 28 27 24 21 24 24 22 23 25 25 26 27 26 25 24 23 22 21 20 20 22 25 26 23 19 14 11 10 9
13 13 11 11 14 17 19 21 20 19 20 21 21 22 22 20 19 19 19 18 19 19 19 21 22 23 25 28 29 29 28 27 28 29 29 28 28 27 27 25 23 23 23 24 25 25 25 24 22 21 22 20 18 18 19 22 26 28 26 21 16 12 11
10 10 9 9 12 15 18 20 20 20 20 20 20 21 22 22 21 21 20 19 19 20 20 20 20 21 22 24 27 29 30 29 30 30 28 27 28 28 26 24 22 20 19 19 20 20 19 19 17 17 18 18 17 18 19 20 23 27 28 27 24 20 16
9 8 8 8 9 11 14 17 18 19 20 20 20 21 23 24 23 22 21 20 19 19 19 18 19 19 20 23 25 27 29 30 30 28 25 23 22 21 20 20 20 19 18 18 17 15 15 15 14 14 14 15 17 19 21 21 21 23 25 28 28 27 25
9 8 8 9 8 9 10 12 15 17 18 20 20 21 22 24 24 24 23 21 20 19 18 19 20 19 20 22 25 26 27 27 26 24 22 19 17 16 15 14 14 16 18 19 18 16 14 14 13 13 13 14 16 17 18 21 21 21 22 24 26 27 28
9 9 9 9 10 10 10 10 11 13 16 18 20 21 21 22 24 25 24 23 21 19 19 18 18 19 20 21 23 24 24 21 19 19 18 15 14 13 11 10 10 11 12 14 15 15 14 13 12 13 13 14 15 14 15 17 19 20 21 21 21 23 25
9 9 10 10 10 10 10 10 11 12 13 14 17 19 21 21 22 23 24 23 21 20 20 19 18 19 19 18 16 17 17 14 13 14 13 13 13 12 10 10 11 9 8 8 9 10 11 11 10 10 11 12 14 15 15 15 16 18 20 20 18 17 19
9 9 9 10 10 10 9 10 11 12 12 12 13 14 16 19 20 21 22 23 22 21 20 20 20 21 19 17 15 15 14 13 12 12 12 12 13 12 11 11 12 11 10 8 7 8 8 8 7 7 8 10 13 14 13 14 16 15 15 17 17 14 14
10 10 10 9 9 9 9 10 11 12 11 11 12 12 13 15 18 19 20 21 22 22 21 21 22 22 19 17 15 14 14 14 13 13 12 12 11 10 9 8 8 8 8 8 7 7 6 6 5 6 7 7 11 12 12 14 16 15 12 14 15 13 11
11 11 11 10 9 9 8 9 10 10 11 12 12 13 13 14 16 18 19 20 20 20 19 19 19 17 15 14 13 12 12 13 12 11 11 10 10 9 9 9 8 7 8 9 9 8 8 7 8 9 9 8 9 11 12 14 16 14 12 13 13 11 11
13 11 10 9 10 10 10 9 8 8 10 12 13 13 13 14 16 16 15 15 15 14 13 12 12 12 12 12 11 11 11 11 10 10 9 9 9 9 10 11 11 9 10 10 9 9 9 10 11 12 12 12 11 11 11 14 16 15 12 12 12 11 11
15 14 12 11 10 9 10 11 12 11 10 10 12 14 14 14 16 15 13 13 12 10 9 9 9 9 10 11 11 11 11 11 12 12 11 11 11 12 12 12 11 10 9 9 8 8 9 10 12 12 11 12 12 11 11 12 15 17 14 12 13 12 11
14 14 14 14 13 10 8 9 11 13 12 10 10 13 15 14 15 15 14 13 11 9 9 10 9 10 11 12 12 11 11 12 13 12 12 13 13 13 12 11 10 11 10 9 9 11 12 12 12 11 11 11 12 11 10 10 11 14 15 14 13 13 12
12 13 13 14 14 13 10 8 7 9 11 10 7 11 14 13 12 13 13 14 13 10 10 10 10 10 11 11 10 9 8 8 9 10 11 11 11 11 12 11 12 12 11 8 8 10 11 11 11 10 10 10 10 10 10 10 10 11 12 13 14 13 12
9 10 10 11 12 12 10 9 8 7 8 7 5 8 12 10 8 7 6 6 7 6 5 6 8 8 9 9 8 8 7 7 8 9 10 10 9 10 11 11 12 12 10 7 7 8 8 8 8 8 8 8 9 9 9 9 10 10 10 10 12 14 14
6 6 7 5 7 11 10 9 8 7 7 5 2 6 11 11 10 7 6 5 5 5 5 5 5 6 7 8 8 8 8 8 8 8 8 8 9 9 10 10 10 9 8 8 8 8 8 8 7 7 7 7 8 7 7 7 7 8 9 8 8 11 14
6 6 9 8 2 6 10 11 12 9 6 6 9 10 10 9 6 4 4 3 3 4 4 4 4 5 6 7 8 8 7 6 6 7 7 7 8 8 9 10 9 8 9 9 9 8 8 8 7 6 6 6 6 7 6 5 4 5 6 7 6 6 8
Wind_Direction
229 220 211 209 210 211 212 214 215 215 214 214 214 213 214 213 211 212 212 212 213 214 216 219 221 221 221 222 223 224 224 225 226 227 227 228 228 230 236 244 248 251 264 271 272 279 282 282 286 287 289 292 291 290 291 290 290 289 292 294 296 296 295
233 225 214 210 211 211 213 215 216 216 216 216 215 213 214 213 211 211 211 211 212 213 214 216 218 221 221 222 223 223 224 225 224 222 224 225 225 229 235 239 243 247 256 266 269 274 280 282 282 280 281 283 283 282 282 283 284 284 286 287 290 291 292
235 227 214 210 212 211 214 216 216 217 217 217 217 215 215 214 211 211 210 209 211 212 212 213 217 222 222 222 223 222 223 226 227 227 227 227 225 229 235 236 238 243 249 259 266 269 275 280 280 280 279 278 279 280 281 280 279 278 278 278 282 287 290
233 226 214 211 212 210 213 216 216 218 218 218 218 217 216 215 212 212 210 209 210 210 213 215 219 223 221 219 221 221 221 222 225 227 228 227 227 230 233 233 233 238 243 253 262 264 268 274 277 279 280 280 279 279 279 278 276 273 273 274 277 282 285
231 222 212 211 213 211 212 215 216 218 219 218 218 217 217 216 215 214 212 213 213 213 215 219 221 223 218 215 216 218 217 217 219 220 221 222 223 224 226 226 229 233 238 244 254 260 264 268 272 276 279 279 280 282 282 280 279 275 274 275 275 274 276
231 223 216 213 213 213 213 214 215 218 219 219 218 217 217 219 219 218 217 219 219 219 220 222 222 221 217 213 213 214 214 214 215 216 217 217 217 218 218 219 223 227 232 238 246 254 260 263 267 272 275 275 275 278 282 283 283 278 272 273 272 268 269
233 227 222 217 213 213 213 213 214 217 219 219 219 217 218 220 221 222 223 223 223 222 222 223 222 220 217 214 213 215 213 212 212 212 214 214 214 214 213 213 217 220 224 232 240 247 253 257 262 267 271 275 275 273 275 280 284 283 277 271 269 267 269
234 228 222 215 213 213 212 212 213 214 217 219 219 218 219 221 222 223 223 223 223 223 222 223 223 221 219 217 217 217 215 212 209 207 209 211 210 209 208 208 209 212 217 224 232 239 245 253 258 263 267 273 276 274 270 268 269 274 279 275 269 266 263
235 229 221 213 211 212 212 212 212 212 214 217 218 220 221 222 222 222 221 221 222 222 220 221 223 222 220 220 219 218 217 215 211 208 207 206 204 204 202 203 205 206 209 215 224 232 237 245 252 256 261 263 264 267 268 267 267 270 276 279 275 270 262
235 229 224 218 214 212 211 212 212 213 216 219 219 219 219 219 219 219 220 220 220 220 220 220 222 224 223 223 222 221 220 220 217 214 212 207 202 201 198 198 201 203 205 208 216 224 228 235 244 246 251 257 260 267 275 277 274 272 274 276 276 274 267
234 230 226 221 219 215 211 211 213 215 219 222 221 218 215 214 215 215 217 218 217 219 222 223 223 223 224 224 223 223 223 223 222 220 218 214 210 207 204 200 198 198 201 206 213 220 222 226 235 239 243 252 258 262 268 270 268 271 275 276 276 278 275
235 231 226 222 220 217 214 215 216 217 221 223 223 218 211 206 205 208 212 217 220 221 222 224 224 223 222 222 221 222 222 224 225 223 221 219 217 216 214 210 208 206 202 204 210 218 221 222 227 233 235 239 247 251 255 263 268 270 271 270 273 275 276
236 231 226 222 219 218 219 220 219 219 223 223 223 220 212 203 201 207 213 216 218 219 219 221 223 221 220 221 221 221 222 223 225 225 224 223 223 224 222 219 219 217 213 211 211 216 221 220 217 222 225 227 232 236 241 250 257 261 263 266 270 268 268
236 230 226 223 221 221 221 222 221 222 225 223 221 220 217 211 207 210 215 215 212 213 214 217 221 223 222 221 220 220 220 221 222 222 223 224 225 226 225 224 224 224 222 221 219 222 226 223 219 222 224 222 222 225 229 235 244 252 255 256 260 263 265
236 230 227 224 223 223 223 223 222 222 224 223 220 221 222 221 216 215 216 216 215 216 216 214 218 224 227 225 222 220 218 217 216 217 218 220 223 224 224 226 227 226 226 227 228 232 237 237 236 237 237 238 238 239 242 245 249 253 255 262 270 273 270
232 227 226 225 223 222 222 223 222 221 222 221 221 224 225 223 221 220 220 219 218 218 217 215 217 224 227 226 224 222 219 215 211 211 213 215 218 220 222 225 226 226 227 230 233 237 241 244 244 243 244 245 245 248 253 254 252 249 247 257 269 269 262
223 220 219 221 220 218 219 222 223 221 221 222 223 225 223 220 222 225 227 227 224 220 216 215 219 224 226 226 225 224 221 215 209 207 209 211 213 216 220 226 228 228 230 232 235 238 241 243 242 240 242 243 240 241 243 241 235 227 222 231 244 253 257
224 217 213 213 216 218 219 223 225 222 222 225 225 222 219 217 221 226 229 231 231 228 222 219 222 224 223 224 224 223 221 216 210 207 207 208 209 213 218 223 226 228 231 233 237 241 243 244 242 239 238 240 239 236 227 223 226 218 207 218 233 248 263
223 217 214 212 214 217 218 222 225 221 220 224 225 222 219 216 217 223 227 227 228 228 226 226 226 224 222 223 224 223 222 219 213 208 207 209 207 208 218 221 218 223 229 231 234 239 243 245 245 243 241 240 242 241 231 228 231 222 205 211 226 237 254
219 216 212 207 210 214 215 220 224 220 220 224 225 223 221 216 217 222 225 224 223 223 224 224 226 227 226 226 226 225 223 221 216 210 210 211 207 210 222 224 220 225 232 233 234 237 239 243 246 247 247 243 241 241 237 232 231 228 220 215 215 222 233
217 212 208 202 207 214 216 220 223 222 222 224 225 226 224 221 221 221 221 221 221 220 221 221 222 225 227 226 226 225 224 224 222 216 213 214 215 223 231 228 222 225 228 231 235 239 242 245 246 245 247 243 235 235 236 233 231 231 229 224 217 216 223
210 204 204 198 204 214 219 222 224 224 226 228 228 229 228 225 223 220 217 218 219 219 221 221 220 223 223 222 224 224 223 224 224 220 219 220 221 225 229 225 220 218 215 217 226 232 234 236 234 236 240 237 229 228 230 229 229 230 232 232 229 226 227
207 199 200 195 200 212 218 223 227 228 230 232 232 232 232 230 226 219 215 216 217 218 219 221 223 225 223 221 222 222 220 222 224 225 224 219 212 211 213 214 215 214 209 207 210 214 216 215 212 215 222 223 224 227 227 225 224 226 229 234 234 234 236
210 200 203 207 208 210 213 220 229 232 232 233 233 234 234 231 226 220 215 215 218 219 220 222 223 224 225 222 220 218 217 219 223 224 218 208 204 206 210 213 217 220 218 210 202 202 206 204 202 205 211 218 224 225 226 226 224 223 225 229 233 235 238
211 208 212 215 216 217 215 214 224 234 236 235 234 234 234 231 226 221 217 215 216 218 221 223 221 222 227 225 217 213 214 216 217 213 205 201 205 211 216 221 223 223 221 208 193 191 197 201 203 208 215 224 227 224 220 219 218 219 222 225 229 232 235
215 212 216 220 221 225 225 222 226 234 236 235 234 233 232 229 225 222 220 219 218 219 223 227 226 224 226 224 214 207 208 210 210 207 205 208 212 214 220 225 218 206 201 196 186 185 192 198 204 212 218 221 220 218 214 209 206 211 216 217 219 221 225
220 214 215 223 225 226 228 230 232 232 231 228 227 225 223 221 220 219 220 220 220 220 221 225 230 231 226 217 210 206 205 205 208 211 210 209 209 214 217 216 210 203 201 205 205 199 197 199 207 226 235 223 209 204 205 205 203 204 207 209 209 209 214
222 221 220 223 226 226 228 232 233 232 228 222 215 211 208 206 207 209 212 215 218 220 221 225 232 235 226 210 203 204 205 204 205 205 202 193 187 192 196 191 190 194 198 206 213 209 202 199 208 229 243 225 200 193 200 210 211 207 201 199 199 200 206
228 223 224 225 224 223 229 235 237 234 226 219 212 206 200 195 195 199 205 210 212 212 214 217 219 215 202 192 194 199 200 199 195 192 190 181 170 172 183 189 191 192 194 200 204 203 203 206 215 225 233 228 211 202 204 209 211 208 200 191 191 195 202
239 223 217 222 228 232 235 238 248 245 227 216 212 208 200 193 190 189 190 193 189 183 184 189 187 179 174 181 193 199 199 197 191 183 179 176 173 176 188 196 199 199 199 196 191 190 201 213 221 224 224 223 223 220 214 206 202 201 198 189 187 195 202
253 236 221 219 228 240 245 245 252 256 246 227 215 208 200 193 189 185 181 178 173 170 175 180 178 178 184 192 199 204 206 207 204 196 187 182 182 184 186 187 186 186 187 185 183 191 205 215 219 218 215 216 220 223 224 212 199 195 195 194 193 197 204
259 250 237 229 226 234 250 252 246 246 255 259 231 203 195 192 192 194 194 191 188 190 197 195 192 193 194 196 201 205 206 203 198 191 183 178 177 177 177 175 176 178 178 179 191 203 208 212 214 215 216 218 219 222 229 228 210 197 194 196 201 204 206
259 256 251 244 238 236 242 248 241 236 252 271 251 200 194 194 194 196 200 199 197 198 197 194 192 189 182 180 181 180 178 176 169 162 162 164 161 162 166 173 181 186 184 180 187 195 200 203 206 207 210 214 216 219 226 234 232 220 207 202 204 209 213
279 273 269 257 244 234 229 230 233 230 243 272 268 201 180 160 136 131 142 155 158 153 149 155 159 156 152 153 153 152 157 160 154 151 156 158 154 156 168 182 191 193 188 180 179 185 189 192 193 194 200 207 211 214 218 223 229 234 233 220 206 204 211
312 314 325 303 237 223 216 204 200 210 224 239 223 161 145 127 110 102 96 91 94 96 100 111 120 127 136 142 145 149 157 159 152 147 150 155 159 166 177 185 187 185 182 180 180 182 183 183 185 190 194 201 206 207 208 214 218 223 236 245 228 210 209
326 323 344 9 60 202 216 211 204 201 179 122 102 102 104 99 92 94 97 86 74 83 101 113 113 119 133 141 145 148 152 152 149 144 143 153 164 170 175 177 175 175 181 182 178 178 179 178 179 187 193 199 208 208 205 207 211 210 221 243 258 244 221